• Em Portugal
  • Lista de países
  • Para 7 dias
  • Temperatura da água
  • Mapas de satélite
  • Mapa do tempo
  • Widgets de tempo
  • user-avatar
    Iniciar Sessão

    Previsão horária em Trzebiele

    Hoje, 22 Outubro, Segunda-feira

    Tempo Temperatura Precipitação Vento Pressão Humidade
    00:00 +7°C° 0 mm 3 m/s 752 mmHg 86%
    01:00 +6°C° 0 mm 4 m/s 752 mmHg 84%
    02:00 +5°C° 0 mm 4 m/s 752 mmHg 84%
    03:00 +5°C° 0 mm 4 m/s 751 mmHg 84%
    04:00 +5°C° 0 mm 4 m/s 751 mmHg 85%
    05:00 +5°C° 0 mm 4 m/s 751 mmHg 85%
    06:00 +5°C° 0 mm 4 m/s 751 mmHg 85%
    07:00 +5°C° 0 mm 4 m/s 750 mmHg 84%
    08:00 +6°C° 0.1 mm 4 m/s 750 mmHg 82%
    09:00 +7°C° 0.1 mm 4 m/s 750 mmHg 80%
    10:00 +8°C° 0.1 mm 4 m/s 750 mmHg 78%
    11:00 +8°C° 0.5 mm 5 m/s 750 mmHg 80%
    12:00 +8°C° 0.5 mm 5 m/s 750 mmHg 82%
    13:00 +9°C° 0.5 mm 5 m/s 750 mmHg 83%
    14:00 +9°C° 0.1 mm 5 m/s 750 mmHg 78%
    15:00 +9°C° 0.1 mm 5 m/s 750 mmHg 73%
    16:00 +9°C° 0.1 mm 5 m/s 750 mmHg 68%
    17:00 +8°C° 0 mm 5 m/s 750 mmHg 71%
    18:00 +7°C° 0 mm 4 m/s 751 mmHg 74%
    19:00 +6°C° 0 mm 4 m/s 751 mmHg 76%
    20:00 +6°C° 0 mm 4 m/s 751 mmHg 78%
    21:00 +6°C° 0 mm 4 m/s 751 mmHg 79%
    22:00 +5°C° 0 mm 3 m/s 751 mmHg 80%
    23:00 +5°C° 0 mm 4 m/s 750 mmHg 81%

    Amanhã, 23 Outubro, Terça-feira

    Tempo Temperatura Precipitação Vento Pressão Humidade
    00:00 +5°C° 0 mm 4 m/s 750 mmHg 81%
    01:00 +5°C° 0 mm 5 m/s 749 mmHg 82%
    02:00 +5°C° 0.1 mm 5 m/s 748 mmHg 81%
    03:00 +4°C° 0.1 mm 6 m/s 747 mmHg 81%
    04:00 +4°C° 0.1 mm 7 m/s 746 mmHg 81%
    05:00 +4°C° 1 mm 7 m/s 744 mmHg 82%
    06:00 +4°C° 1 mm 8 m/s 743 mmHg 83%
    07:00 +3°C° 1 mm 9 m/s 742 mmHg 84%
    08:00 +5°C° 1.4 mm 9 m/s 740 mmHg 84%
    09:00 +5°C° 1.4 mm 10 m/s 739 mmHg 84%
    10:00 +6°C° 1.4 mm 10 m/s 738 mmHg 84%
    11:00 +7°C° 2.4 mm 10 m/s 737 mmHg 85%
    12:00 +7°C° 2.4 mm 10 m/s 736 mmHg 85%
    13:00 +8°C° 2.4 mm 10 m/s 735 mmHg 86%
    14:00 +8°C° 1.2 mm 10 m/s 734 mmHg 83%
    15:00 +8°C° 1.2 mm 10 m/s 734 mmHg 80%
    16:00 +8°C° 1.2 mm 9 m/s 733 mmHg 78%
    17:00 +8°C° 0.6 mm 9 m/s 733 mmHg 78%
    18:00 +8°C° 0.6 mm 9 m/s 733 mmHg 78%
    19:00 +8°C° 0.6 mm 9 m/s 732 mmHg 78%
    20:00 +8°C° 0.4 mm 9 m/s 732 mmHg 76%
    21:00 +8°C° 0.4 mm 9 m/s 731 mmHg 73%
    22:00 +7°C° 0.4 mm 9 m/s 730 mmHg 71%
    23:00 +7°C° 0.3 mm 10 m/s 731 mmHg 68%

    Depois de amanhã, 24 Outubro, Quarta-feira

    Tempo Temperatura Precipitação Vento Pressão Humidade
    00:00 +6°C° 0.3 mm 10 m/s 731 mmHg 65%
    01:00 +6°C° 0.3 mm 11 m/s 731 mmHg 62%
    02:00 +5°C° 0.1 mm 10 m/s 732 mmHg 59%
    03:00 +5°C° 0.1 mm 9 m/s 732 mmHg 57%
    04:00 +4°C° 0.1 mm 8 m/s 733 mmHg 55%
    05:00 +4°C° 0 mm 8 m/s 734 mmHg 54%
    06:00 +2°C° 0 mm 8 m/s 735 mmHg 54%
    07:00 +2°C° 0 mm 8 m/s 735 mmHg 53%
    08:00 +3°C° 0 mm 9 m/s 736 mmHg 51%
    09:00 +5°C° 0 mm 10 m/s 737 mmHg 49%
    10:00 +4°C° 0 mm 11 m/s 737 mmHg 48%
    11:00 +6°C° 0 mm 10 m/s 738 mmHg 47%
    12:00 +6°C° 0 mm 10 m/s 739 mmHg 46%
    13:00 +6°C° 0 mm 10 m/s 739 mmHg 45%
    14:00 +6°C° 0 mm 9 m/s 740 mmHg 47%
    15:00 +5°C° 0 mm 8 m/s 740 mmHg 48%
    16:00 +5°C° 0 mm 7 m/s 741 mmHg 50%
    17:00 +5°C° 0 mm 6 m/s 741 mmHg 53%
    18:00 +5°C° 0 mm 5 m/s 741 mmHg 56%
    19:00 +5°C° 0 mm 5 m/s 741 mmHg 58%
    20:00 +5°C° 0 mm 4 m/s 741 mmHg 62%
    21:00 +4°C° 0 mm 4 m/s 741 mmHg 65%
    22:00 +4°C° 0 mm 3 m/s 741 mmHg 68%
    23:00 +4°C° 0 mm 4 m/s 741 mmHg 72%

    25 Outubro, Quinta-feira

    Tempo Temperatura Precipitação Vento Pressão Humidade
    00:00 +4°C° 0 mm 4 m/s 740 mmHg 75%
    01:00 +5°C° 0 mm 4 m/s 739 mmHg 79%
    02:00 +5°C° 0.6 mm 5 m/s 738 mmHg 83%
    03:00 +6°C° 0.6 mm 5 m/s 737 mmHg 87%
    04:00 +7°C° 0.6 mm 6 m/s 736 mmHg 91%
    05:00 +8°C° 0.7 mm 7 m/s 736 mmHg 87%
    06:00 +7°C° 0.7 mm 8 m/s 735 mmHg 84%
    07:00 +8°C° 0.7 mm 9 m/s 734 mmHg 80%
    08:00 +8°C° 0.2 mm 9 m/s 735 mmHg 77%
    09:00 +8°C° 0.2 mm 9 m/s 735 mmHg 74%
    10:00 +8°C° 0.2 mm 9 m/s 735 mmHg 71%
    11:00 +8°C° 0.1 mm 9 m/s 735 mmHg 69%
    12:00 +8°C° 0.1 mm 9 m/s 736 mmHg 66%
    13:00 +10°C° 0.1 mm 9 m/s 736 mmHg 64%
    14:00 +10°C° 0 mm 8 m/s 736 mmHg 66%
    15:00 +9°C° 0 mm 8 m/s 737 mmHg 68%
    16:00 +9°C° 0 mm 7 m/s 737 mmHg 70%
    17:00 +8°C° 0 mm 7 m/s 737 mmHg 72%
    18:00 +8°C° 0 mm 6 m/s 738 mmHg 74%
    19:00 +8°C° 0 mm 6 m/s 738 mmHg 75%
    20:00 +7°C° 0 mm 5 m/s 738 mmHg 77%
    21:00 +7°C° 0 mm 4 m/s 739 mmHg 78%
    22:00 +6°C° 0 mm 4 m/s 739 mmHg 79%
    23:00 +7°C° 0 mm 3 m/s 739 mmHg 81%

    26 Outubro, Sexta-feira

    Tempo Temperatura Precipitação Vento Pressão Humidade
    00:00 +7°C° 0 mm 3 m/s 739 mmHg 82%
    01:00 +6°C° 0 mm 2 m/s 739 mmHg 84%
    02:00 +6°C° 0 mm 2 m/s 739 mmHg 84%
    03:00 +6°C° 0 mm 2 m/s 739 mmHg 85%
    04:00 +6°C° 0 mm 2 m/s 739 mmHg 85%
    05:00 +6°C° 0.1 mm 2 m/s 739 mmHg 86%
    06:00 +6°C° 0.1 mm 2 m/s 739 mmHg 87%
    07:00 +7°C° 0.1 mm 3 m/s 739 mmHg 88%
    08:00 +7°C° 0 mm 3 m/s 739 mmHg 85%
    09:00 +8°C° 0 mm 3 m/s 739 mmHg 82%
    10:00 +8°C° 0 mm 4 m/s 739 mmHg 78%
    11:00 +8°C° 0.1 mm 4 m/s 738 mmHg 76%
    12:00 +8°C° 0.1 mm 4 m/s 738 mmHg 74%
    13:00 +10°C° 0.1 mm 4 m/s 737 mmHg 72%
    14:00 +10°C° 0.1 mm 4 m/s 737 mmHg 74%
    15:00 +10°C° 0.1 mm 4 m/s 736 mmHg 77%
    16:00 +10°C° 0.1 mm 4 m/s 736 mmHg 79%
    17:00 +9°C° 0.1 mm 5 m/s 736 mmHg 80%
    18:00 +9°C° 0.1 mm 5 m/s 735 mmHg 82%
    19:00 +9°C° 0.1 mm 5 m/s 735 mmHg 83%
    20:00 +9°C° 0.1 mm 5 m/s 734 mmHg 83%
    21:00 +8°C° 0.1 mm 5 m/s 734 mmHg 84%
    22:00 +8°C° 0.1 mm 5 m/s 734 mmHg 84%
    23:00 +8°C° 0 mm 5 m/s 733 mmHg 85%

    27 Outubro, Sábado

    Tempo Temperatura Precipitação Vento Pressão Humidade
    00:00 +8°C° 0 mm 5 m/s 733 mmHg 86%
    01:00 +7°C° 0 mm 5 m/s 733 mmHg 87%
    02:00 +7°C° 0 mm 5 m/s 733 mmHg 87%
    03:00 +7°C° 0 mm 5 m/s 733 mmHg 87%
    04:00 +7°C° 0 mm 5 m/s 733 mmHg 86%
    05:00 +7°C° 0 mm 4 m/s 733 mmHg 86%
    06:00 +6°C° 0 mm 4 m/s 733 mmHg 85%
    07:00 +6°C° 0 mm 4 m/s 733 mmHg 84%
    08:00 +6°C° 0 mm 4 m/s 733 mmHg 79%
    09:00 +7°C° 0 mm 4 m/s 734 mmHg 75%
    10:00 +7°C° 0 mm 5 m/s 734 mmHg 70%
    11:00 +7°C° 0 mm 5 m/s 734 mmHg 66%
    12:00 +8°C° 0 mm 4 m/s 734 mmHg 62%
    13:00 +8°C° 0 mm 4 m/s 734 mmHg 58%
    14:00 +9°C° 0 mm 3 m/s 734 mmHg 60%
    15:00 +8°C° 0 mm 3 m/s 734 mmHg 63%
    16:00 +8°C° 0 mm 2 m/s 734 mmHg 65%
    17:00 +7°C° 0 mm 2 m/s 734 mmHg 67%
    18:00 +8°C° 0 mm 1 m/s 734 mmHg 68%
    19:00 +8°C° 0 mm 1 m/s 734 mmHg 70%
    20:00 +8°C° 0 mm 1 m/s 734 mmHg 70%
    21:00 +7°C° 0 mm 1 m/s 734 mmHg 71%
    22:00 +6°C° 0 mm 0 m/s 734 mmHg 71%
    23:00 +7°C° 0 mm 1 m/s 734 mmHg 72%

    28 Outubro, Domingo

    Tempo Temperatura Precipitação Vento Pressão Humidade
    00:00 +7°C° 0 mm 1 m/s 734 mmHg 72%
    01:00 +7°C° 0 mm 1 m/s 734 mmHg 73%
    02:00 +7°C° 0.1 mm 1 m/s 734 mmHg 74%
    03:00 +7°C° 0.1 mm 1 m/s 734 mmHg 76%
    04:00 +7°C° 0.1 mm 1 m/s 734 mmHg 78%
    05:00 +6°C° 0.2 mm 1 m/s 734 mmHg 79%
    06:00 +6°C° 0.2 mm 1 m/s 734 mmHg 80%
    07:00 +6°C° 0.2 mm 1 m/s 734 mmHg 81%
    08:00 +6°C° 0.2 mm 2 m/s 734 mmHg 80%
    09:00 +6°C° 0.2 mm 2 m/s 734 mmHg 79%
    10:00 +6°C° 0.2 mm 2 m/s 734 mmHg 78%
    11:00 +6°C° 0.4 mm 2 m/s 734 mmHg 78%
    12:00 +5°C° 0.4 mm 3 m/s 734 mmHg 79%
    13:00 +5°C° 0.4 mm 3 m/s 734 mmHg 80%
    14:00 +5°C° 0.8 mm 3 m/s 734 mmHg 82%
    15:00 +5°C° 0.8 mm 3 m/s 735 mmHg 84%
    16:00 +5°C° 0.8 mm 3 m/s 735 mmHg 87%
    17:00 +5°C° 0.5 mm 3 m/s 735 mmHg 88%
    18:00 +6°C° 0.5 mm 2 m/s 736 mmHg 89%
    19:00 +5°C° 0.5 mm 2 m/s 736 mmHg 90%
    20:00 +4°C° 0.5 mm 3 m/s 737 mmHg 89%
    21:00 +4°C° 0.5 mm 3 m/s 737 mmHg 88%
    22:00 +4°C° 0.5 mm 4 m/s 738 mmHg 87%
    23:00 +4°C° 0.4 mm 4 m/s 738 mmHg 86%
    Mostrar mais